Location: Street
(51.1247°N, 2.7429°W)
Time: 09:15:46
(UTC+00:00)

Tiros 1 - Pass Details

Date: 05 December 2020
Orbit: 630 x 663 km, 48.4° (Epoch: 21 January)

Event Time Altitude Azimuth Distance (km) Brightness Sun altitude
Rises 16:01:55 0° 266° (W) 2,995 11.7 -0.4°
Reaches altitude 10° 16:04:17 10° 263° (W) 2,082 10.9 -0.7°
Maximum altitude 16:09:02 64° 183° (S) 735 7.7 -1.4°
Drops below altitude 10° 16:13:47 10° 103° (ESE) 2,071 9.4 -2.0°
Sets 16:16:08 0° 100° (E) 2,978 10.1 -2.3°
